Simultaneous Nadir Overpasses (SNOs) Predictions

Prediction of SNOs between AURA and NPP Satellite Orbit:

Table of predicted SNOs for the next 14.0 days since TLE Epoch: 9/9/2023
Index Date (AURA) Time (AURA) Lat,Lon (AURA) SZA (AURA ) Date (NPP) Time (NPP) Lat,Lon (NPP) SZA (NPP ) Distance(km) Time Diff (sec)
1 09/10/2023 06:52:49 -79.99, 158.02 93.53 09/10/2023 06:52:45 -79.99, 158.03 93.53 0.34 4
2 09/10/2023 07:41:35 81.14, -21.61 84.37 09/10/2023 07:42:48 80.96, -20.94 84.21 22.60 73
3 09/12/2023 21:28:54 -79.96, -61.26 92.54 09/12/2023 21:28:09 -79.97, -61.11 92.53 2.87 45
4 09/12/2023 22:18:15 80.09, 107.48 87.27 09/12/2023 22:18:49 80.09, 107.47 87.25 0.34 34
5 09/15/2023 12:54:20 80.02,-112.10 88.32 09/15/2023 12:54:14 80.02,-112.05 88.32 0.91 6
6 09/15/2023 13:43:42 -80.16, 56.69 91.88 09/15/2023 13:44:55 -80.16, 56.67 91.93 0.48 73
7 09/18/2023 03:30:25 79.92, 28.07 89.43 09/18/2023 03:29:40 79.93, 28.11 89.45 0.78 45
8 09/18/2023 04:19:46 -80.09,-162.85 90.83 09/18/2023 04:20:20 -80.09,-162.88 90.85 0.55 34
9 09/20/2023 18:55:49 -80.00, -22.66 89.73 09/20/2023 18:55:45 -79.99, -22.76 89.71 2.03 4



Historial Predications of SNOs between AURA and NPP
